STARLINK-32734, 62476

Orbit data source: Space-Track

STARLINK-32734, 62476 is a payload satellite owned by SpaceX/Seattle (US) in LEO that was launched on Tue, 31 Dec 2024 UTC via an FALCON 9 launch vehicle from the Air Force Eastern Test Range (AFETR). Payloads include a variety of satellites, spacecraft, and rockets equipped with specific instruments for various scientific and technological missions. These include communications satellites like Starlink; space stations such as the ISS; scientific satellites like the Hubble; Earth observation satellites from companies like Planet Labs, Umbra, and HawkEye 360; GPS; miniature CubeSats for education and research; and military/defense satellites.

Loading next visibility...
STARLINK-32734 details
Identifier
62476, 2024-254Q
Orbit
LEO
Last TLE update5 hours ago
Origin
Flag of USSpaceX/Seattle (US)
ManufacturerSpaceX/Seattle
MissionOperational spacecraft
Bus & MotorSTARLINK V2M, Unknown motor
Mass730 kg wet, ~700 kg dry
Launch date (UTC)
2024-12-31 (4 weeks ago)
Launch vehicle
FALCON 9
Launch site
Air Force Eastern Test Range (AFETR)
Object type
Payload
Rocket body
Debris
Shape & HBRUnknown
Radar Cross SectionLarge (>1 m²)

Expand to show TLE details & history

TLE from 5 hours ago
0 STARLINK-32734
1 62476U 24254Q   25025.58334491 -.01612833  00000-0 -28496-1 0  9999
2 62476  42.9991 166.1636 0001339 273.9100 329.8081 15.52538772  5234
Epoch: 2025-01-25T14:00Z
Definitive object data (Epoch: 2025-01-25T14:00:01Z)
Latitude-37.86752°
Longitude67.04831°
Altitude419.684 km
Speed7.66 km/s
True Right ascension02h 48m 43s
True Declination-37° 41' 34"
Sunlit
Object was in daylight at TLE epoch
Visualization TLE readout
Latitude3.12235°
Longitude-166.8946°
Altitude410.834 km
Speed7.667 km/s
Apparent Right ascension10h 05m 10s
Apparent Declination-18° 39' 32"
Sunlit
Object is in full shadow
Visualization observer readout
Local Sidereal Time20:30:01
Azimuth309.13° NW
Elevation-60.485°
Doppler factor1
Orbital elements
Apogee altitude412.192 km
Perigee altitude410.374 km
Semi-major axis6,789.42 km
Eccentricity0.0001339
Inclination42.9991°
RAAN166.1636°
Arg. of periapsis273.91°
True anomaly329.80038°
Mean anomaly329.8081°
Eccentric anomaly329.80424°
Mean motion3.87966 °/min
BSTAR-0.028496
Orbital period92.79 mins
Loading maneuver chart data...
Loading historical data...
Loading historical data...
Loading historical data...
Loading historical data...
Loading historical data...
Loading historical data...
Loading historical data...

STARLINK-32734 Visibility forecast

Observer location: undefined°, undefined

Span
Click to sort rows by Start time (UTC) header in descending order
Start Az.
Max El. time (UTC)
Max El. Az.
Max El.
End time (UTC)
End Az.
5 mins2025-01-26 12:21:07.502Z205.178° SW2025-01-26 12:23:07.502Z151.674° SSE27.856°2025-01-26 12:26:07.502Z85.939° E
4 mins2025-01-26 13:59:07.502Z272.012° WNW2025-01-26 14:00:07.502Z300.684° NW40.51°2025-01-26 14:03:07.502Z68.065° E
5 mins2025-01-26 15:36:07.502Z294.202° NW2025-01-26 15:38:07.502Z352.505° N36.809°2025-01-26 15:41:07.502Z78.742° E
5 mins2025-01-26 17:14:07.502Z282.411° WNW2025-01-26 17:16:07.502Z168.225° S43.364°2025-01-26 17:19:07.502Z116.782° SE
|